Tracking 31027 objects as of 19-Jul-2025
HD Live streaming from Space Station
objects crossing your sky now

FENGYUN 1C DEB

Track FENGYUN 1C DEB now!
10-day predictions


NORAD ID: 31906
Int'l Code: 1999-025CLH
Perigee: 780.6 km
Apogee: 862.9 km
Inclination: 98.7 °
Period: 101.2 minutes
Semi major axis: 7192 km
RCS: 0.0067 m2 (small)
Launch date: May 10, 1999
Source: People's Republic of China (PRC)
Launch site: Taiyaun Space Center, China (TSC)

Note: This is SATELLITE DEBRIS
Your satellite tracking list
DEWASAT-2
Track 1 satellite(s)




NASA's NSSDC Master Catalog

Two Line Element Set (TLE):
1 31906U 99025CLH 25199.35363419  .00002718  00000-0  12011-2 0  9999
2 31906  98.6861 334.2263 0057162 184.9335 202.2451 14.23184503930320
Source of the keplerian elements: AFSPC